Weather in Kavalerskiy

Russia / Rostov Oblast     46°20′36″N   40°27′05″E
temp.,
°C
wind,
m/s
gust,
m/s
humid.,
%
clouds,
%
prec.,
mm/h
press.,
hPa
HPBL,
m
20 september, mon
mon2000:00+19s51177100 0.2 1012809
03:00+17ssw61384100 1.4 1012547
06:00+17sw5128646 1.1 1011382
09:00+21sw68625 1.3 1012842
12:00+24wsw564326 1.3 10121890
15:00+23sw474499 1.3 1012837
18:00+22ssw4847100 0.0 1012312
21:00+19wnw335137 0.1 101446
21 september, tue
tue2100:00+17sw366399 0.0 1014136
03:00+16ssw357670 0.0 101398
06:00+15ssw3585100 0.0 1014110
09:00+17w4781100 0.2 1014444
12:00+15wnw2387100 1.8 1014196
15:00+14w3489100 5.4 1014429
18:00+14w248414 0.5 1015332
21:00+13wsw36911 0.5 1015132
22 september, wed
wed2200:00+12wsw358518 0.0 1015123
03:00+11w388882 0.0 1014213
06:00+10wnw367897 0.0 1015259
09:00+12wnw456013 0.0 1016971
12:00+15w564729 0.0 10151466
15:00+15w664639 0.0 10151551
18:00+14wnw35497 0.0 1015230
21:00+12nne115422 0.0 101614
23 september, thu
thu2300:00+11se12575 0.0 101516
03:00+10se226020 0.0 101516
06:00+9ese226462 0.0 101422
09:00+13ese4549100 0.0 1014495
12:00+15ese4444100 0.0 1013875
15:00+11e5670100 0.3 1013352
18:00+10ene4683100 0.6 1014303
21:00+10ene4790100 2.1 1013352
24 september, fri
fri2400:00+10ne3590100 0.9 1012254
03:00+10n2395100 0.9 101292
06:00+11n2591100 0.0 1012274
09:00+12nnw3481100 0.0 1013339
12:00+14wnw226096 0.0 1014609
15:00+17sw334689 0.0 10141368
18:00+16wsw3555100 0.0 1014256
21:00+14w4755100 0.0 1016472